TimeCDT,TemperatureF,Dew PointF,Humidity,Sea Level PressureIn,VisibilityMPH,Wind Direction,Wind SpeedMPH,Gust SpeedMPH,PrecipitationIn,Events,Conditions,WindDirDegrees,DateUTC
12:15 AM,64.4,64.4,100,29.85,3.0,NE,3.5,-,N/A,Rain,Rain,40,2012-09-30 05:15:00
12:55 AM,66.2,66.2,100,29.83,2.5,NE,3.5,-,N/A,Rain,Rain,50,2012-09-30 05:55:00
1:15 AM,66.2,66.2,100,29.82,1.8,ENE,4.6,-,N/A,Rain,Rain,70,2012-09-30 06:15:00
1:35 AM,66.2,66.2,100,29.83,1.5,ENE,5.8,-,N/A,Rain,Rain,60,2012-09-30 06:35:00
1:55 AM,66.2,66.2,100,29.82,1.2,NE,3.5,-,N/A,Rain,Rain,50,2012-09-30 06:55:00
2:15 AM,66.2,66.2,100,29.82,1.8,North,4.6,-,N/A,Rain,Heavy Rain,10,2012-09-30 07:15:00
2:35 AM,66.2,66.2,100,29.81,2.0,NNE,5.8,-,N/A,Rain,Heavy Rain,20,2012-09-30 07:35:00
2:55 AM,66.2,66.2,100,29.80,2.5,NNE,4.6,-,N/A,Rain,Rain,30,2012-09-30 07:55:00
3:15 AM,66.2,66.2,100,29.79,2.5,NNE,4.6,-,N/A,Rain,Rain,20,2012-09-30 08:15:00
3:35 AM,66.2,66.2,100,29.79,4.0,NNE,6.9,-,N/A,,Drizzle,30,2012-09-30 08:35:00
3:55 AM,66.2,66.2,100,29.79,5.0,NNE,5.8,-,N/A,,Overcast,20,2012-09-30 08:55:00
4:15 AM,66.2,66.2,100,29.79,4.0,NNE,4.6,-,N/A,Rain,Light Rain,20,2012-09-30 09:15:00
4:35 AM,64.4,64.4,100,29.77,5.0,North,5.8,-,N/A,,Overcast,10,2012-09-30 09:35:00
4:55 AM,64.4,64.4,100,29.78,6.0,North,6.9,-,N/A,,Drizzle,10,2012-09-30 09:55:00
5:35 AM,62.6,62.6,100,29.79,2.5,NNE,6.9,-,N/A,,Overcast,30,2012-09-30 10:35:00
5:55 AM,62.6,62.6,100,29.79,2.0,North,8.1,17.3,N/A,,Drizzle,10,2012-09-30 10:55:00
6:15 AM,62.6,62.6,100,29.79,3.0,North,8.1,-,N/A,,Overcast,10,2012-09-30 11:15:00
6:35 AM,62.6,62.6,100,29.80,2.5,NNE,8.1,-,N/A,,Light Drizzle,20,2012-09-30 11:35:00
6:55 AM,62.6,62.6,100,29.80,1.2,NNE,6.9,-,N/A,Rain,Rain,20,2012-09-30 11:55:00
7:15 AM,62.6,62.6,100,29.80,1.5,North,10.4,-,N/A,Rain,Heavy Rain,360,2012-09-30 12:15:00
7:35 AM,62.6,62.6,100,29.80,1.8,North,6.9,18.4,N/A,Rain,Rain,10,2012-09-30 12:35:00
7:55 AM,62.6,62.6,100,29.81,1.5,North,10.4,18.4,N/A,Rain,Heavy Rain,360,2012-09-30 12:55:00
8:15 AM,62.6,62.6,100,29.81,1.0,North,10.4,18.4,N/A,Rain,Heavy Rain,360,2012-09-30 13:15:00
8:35 AM,62.6,62.6,100,29.82,3.0,North,11.5,18.4,N/A,,Drizzle,360,2012-09-30 13:35:00
8:55 AM,62.6,62.6,100,29.82,2.0,North,13.8,17.3,N/A,,Drizzle,350,2012-09-30 13:55:00
9:15 AM,62.6,62.6,100,29.83,1.0,North,10.4,16.1,N/A,Rain,Rain,10,2012-09-30 14:15:00
9:35 AM,62.6,62.6,100,29.83,0.8,North,9.2,16.1,N/A,Rain,Heavy Rain,360,2012-09-30 14:35:00
9:55 AM,62.6,62.6,100,29.83,0.8,North,9.2,17.3,N/A,Rain,Heavy Rain,10,2012-09-30 14:55:00
10:15 AM,62.6,62.6,100,29.83,0.8,North,12.7,-,N/A,Rain,Heavy Rain,360,2012-09-30 15:15:00
10:35 AM,62.6,62.6,100,29.84,0.8,North,8.1,18.4,N/A,Rain,Heavy Rain,360,2012-09-30 15:35:00
10:55 AM,62.6,62.6,100,29.84,1.2,North,11.5,17.3,N/A,Rain,Light Rain,360,2012-09-30 15:55:00
11:15 AM,62.6,62.6,100,29.84,0.8,North,10.4,17.3,N/A,Rain,Heavy Rain,360,2012-09-30 16:15:00
11:35 AM,62.6,62.6,100,29.84,1.0,North,12.7,18.4,N/A,Rain,Rain,360,2012-09-30 16:35:00
11:55 AM,62.6,62.6,100,29.84,1.0,North,11.5,20.7,N/A,Rain,Rain,360,2012-09-30 16:55:00
12:15 PM,62.6,62.6,100,29.84,0.8,North,10.4,17.3,N/A,Rain,Heavy Rain,360,2012-09-30 17:15:00
12:35 PM,62.6,62.6,100,29.84,1.2,North,10.4,19.6,N/A,Rain,Rain,360,2012-09-30 17:35:00
12:55 PM,60.8,60.8,100,29.85,1.2,North,15.0,20.7,N/A,Rain,Rain,10,2012-09-30 17:55:00
1:15 PM,60.8,60.8,100,29.85,1.8,North,9.2,21.9,N/A,,Overcast,10,2012-09-30 18:15:00
1:35 PM,60.8,59.0,94,29.85,4.0,North,6.9,17.3,N/A,,Overcast,10,2012-09-30 18:35:00
1:55 PM,60.8,60.8,100,29.84,1.5,North,9.2,-,N/A,Rain,Rain,350,2012-09-30 18:55:00
2:15 PM,60.8,60.8,100,29.83,1.2,NNW,9.2,-,N/A,Rain,Rain,340,2012-09-30 19:15:00
2:35 PM,60.8,60.8,100,29.83,1.5,North,8.1,18.4,N/A,Rain,Heavy Rain,10,2012-09-30 19:35:00
2:55 PM,60.8,60.8,100,29.83,1.5,North,9.2,16.1,N/A,Rain,Heavy Rain,10,2012-09-30 19:55:00
3:15 PM,60.8,59.0,94,29.83,0.5,North,12.7,17.3,N/A,Rain,Heavy Rain,10,2012-09-30 20:15:00
3:35 PM,60.8,59.0,94,29.80,2.0,NNE,8.1,18.4,N/A,Rain,Heavy Rain,30,2012-09-30 20:35:00
3:55 PM,60.8,59.0,94,29.82,1.2,North,9.2,-,N/A,Rain,Heavy Rain,360,2012-09-30 20:55:00
4:15 PM,60.8,59.0,94,29.82,1.2,North,6.9,-,N/A,Rain,Heavy Rain,360,2012-09-30 21:15:00
4:35 PM,60.8,60.8,100,29.82,7.0,North,6.9,-,N/A,,Scattered Clouds,360,2012-09-30 21:35:00
4:55 PM,60.8,60.8,100,29.82,5.0,North,6.9,16.1,N/A,,Clear,350,2012-09-30 21:55:00
5:15 PM,60.8,60.8,100,29.82,4.0,North,8.1,-,N/A,Rain,Rain,350,2012-09-30 22:15:00
5:35 PM,62.6,60.8,94,29.81,8.0,NNW,9.2,-,N/A,,Clear,340,2012-09-30 22:35:00
5:55 PM,62.6,60.8,94,29.81,10.0,NNW,10.4,-,N/A,,Clear,340,2012-09-30 22:55:00
6:15 PM,64.4,62.6,94,29.81,10.0,NNW,8.1,-,N/A,,Clear,340,2012-09-30 23:15:00
6:35 PM,64.4,62.6,94,29.81,10.0,NNW,6.9,-,N/A,,Clear,340,2012-09-30 23:35:00
6:55 PM,64.4,60.8,88,29.82,9.0,North,6.9,-,N/A,,Clear,350,2012-09-30 23:55:00
7:15 PM,62.6,60.8,94,29.82,9.0,NNW,9.2,-,N/A,,Clear,340,2012-10-01 00:15:00
7:35 PM,62.6,60.8,94,29.82,10.0,North,8.1,-,N/A,,Partly Cloudy,350,2012-10-01 00:35:00
7:55 PM,62.6,60.8,94,29.83,10.0,NNW,6.9,-,N/A,,Partly Cloudy,340,2012-10-01 00:55:00
8:15 PM,62.6,59.0,88,29.84,10.0,NNW,9.2,-,N/A,,Partly Cloudy,340,2012-10-01 01:15:00
8:35 PM,62.6,59.0,88,29.84,10.0,NNW,6.9,-,N/A,,Partly Cloudy,340,2012-10-01 01:35:00
8:55 PM,62.6,59.0,88,29.84,10.0,NNW,8.1,-,N/A,,Scattered Clouds,340,2012-10-01 01:55:00
9:15 PM,62.6,59.0,88,29.85,10.0,NNW,6.9,-,N/A,,Mostly Cloudy,340,2012-10-01 02:15:00
9:35 PM,62.6,59.0,88,29.85,10.0,North,4.6,-,N/A,,Partly Cloudy,350,2012-10-01 02:35:00
9:55 PM,62.6,59.0,88,29.86,10.0,North,4.6,-,N/A,,Scattered Clouds,350,2012-10-01 02:55:00
10:15 PM,62.6,59.0,88,29.86,10.0,NNW,5.8,-,N/A,,Mostly Cloudy,340,2012-10-01 03:15:00
10:35 PM,62.6,59.0,88,29.85,10.0,NNW,4.6,-,N/A,,Scattered Clouds,330,2012-10-01 03:35:00
10:55 PM,62.6,59.0,88,29.85,10.0,NNW,3.5,-,N/A,,Scattered Clouds,330,2012-10-01 03:55:00
11:35 PM,62.6,59.0,88,29.86,10.0,NNW,5.8,-,N/A,,Mostly Cloudy,340,2012-10-01 04:35:00
11:55 PM,62.6,59.0,88,29.85,10.0,NW,5.8,-,N/A,,Partly Cloudy,310,2012-10-01 04:55:00